Location: Asheville, NC
(35.6000°N, 82.5500°W)
Time: 20:43:56
(UTC-04:00)

Vanguard 2 - Pass Details

Date: 08 March 2018
Orbit: 553 x 2939 km, 32.9° (Epoch: 20 June)

Event Time Altitude Azimuth Distance (km) Brightness Sun altitude
Rises 11:35:17 0° 228° (SW) 5,988 12.2 46.8°
Reaches altitude 10° 11:39:00 10° 224° (SW) 5,218 12.1 47.1°
Maximum altitude 11:54:48 55° 152° (SSE) 3,331 13.3 48.3°
Drops below altitude 10° 12:11:20 10° 81° (E) 5,448 12.0 49.1°
Sets 12:15:17 0° 77° (ENE) 6,260 12.2 49.2°
